THOR ABLESTAR DEB, 264

Orbit data source: Space-Track

THOR ABLESTAR DEB, 264 is space debris in LEO originally from a launch on Thu, 29 Jun 1961 UTC launched from the Air Force Eastern Test Range (AFETR). Debris objects in space refer to the collection of defunct objects orbiting the Earth. Examples of debris include non-operational satellites, rocket bodies, and fragments generated from explosions, collisions, or faulty payload assembly.

Loading next visibility...
Identifier
264, 1961-015CL
Orbit
LEO
Last TLE update
10 hours ago
Origin
Manufacturer
Unknown
Mission
Spacecraft
Bus & Motor
Unknown
Mass
Unknown
Launch date (UTC)
1961-06-29 (64 years ago)
Launch vehicle
Unknown
Launch site
Air Force Eastern Test Range (AFETR)
Object type
Payload
Rocket body
Debris
Shape & HBR
Unknown
Radar Cross Section
Medium (>0.1 m² and <1 m²)

Expand to show TLE details & history

TLE from 10 hours ago
0 THOR ABLESTAR DEB
1 00264U 61015CL  25199.57457822  .00001417  00000-0  50330-3 0  9998
2 00264  66.5240  42.9607 0031699 262.6406  97.1091 14.37078016285682
Epoch: 2025-07-18T13:47Z
TLE epoch observation values (Epoch: 2025-07-18T13:47:23.558Z)
Latitude
-0.00004°
Longitude
-100.51155°
Altitude
773.144 km
Speed
7.466 km/s
True Right ascension
02h 51m 50s
True Declination
0° 00' 00"
Sunlit
Object was in daylight at epoch
Visualization orbit readout
Latitude
-16.85435°
Longitude
-109.13458°
Altitude
769.726 km
Speed
7.471 km/s
Apparent Right ascension
01h 33m 14s
Apparent Declination
-28° 11' 47"
Sunlit
Object is in daylight
Visualization observer readout
Local Sidereal Time
12:31:14
Azimuth
307.785° NW
Elevation
-72.665°
Doppler factor
1
Orbital elements
Apogee altitude
789.207 km
Perigee altitude
743.911 km
Semi-major axis
7,144.696 km
Eccentricity
0.00317
Inclination
66.524°
RAAN
42.9607°
Arg. of periapsis
262.6406°
True anomaly
97.46937°
Mean anomaly
97.1091°
Eccentric anomaly
97.28925°
Mean motion
3.59391 °/min
Orbital period
100.17 mins
BSTAR
0.0005033
Loading maneuver chart data...
Loading SW <> Apogee altitude chart data...
|